Location: ???? ???? ?????
(31.2680°N, 31.7283°E)
Time: 04:27:08
(UTC+00:00)

Cosmos 1980 - Pass Details

Date: 13 July 2020
Orbit: 839 x 847 km, 71.0° (Epoch: 11 August)

Event Time Altitude Azimuth Distance (km) Brightness Sun altitude
Rises 18:09:06 0° 191° (S) 3,375 6.6 -13.6°
Reaches altitude 10° 18:11:32 10° 189° (S) 2,443 5.8 -14.0°
Maximum altitude 18:17:06 67° 107° (ESE) 905 3.6 -15.0°
Drops below altitude 10° 18:22:41 10° 26° (NNE) 2,457 6.3 -15.9°
Sets 18:25:08 0° 24° (NNE) 3,395 7.0 -16.3°
